When you browse on this site, cookies collect data to enhance your experience and personalize the content and advertising you see.
Visit our Privacy Policy to learn more. By continuing to use the site, you agree to this use of cookies and data.

Hourly Weather Saint-Omer

Today, 5 July, Sunday

Time Temperature Precipitation Wind Pressure Humidity
00:00 +17°C° 0 mm 10 mps 756 mmHg 86%
01:00 +17°C° 0 mm 10 mps 756 mmHg 86%
02:00 +17°C° 0 mm 10 mps 756 mmHg 86%
03:00 +17°C° 0 mm 10 mps 755 mmHg 86%
04:00 +17°C° 0 mm 10 mps 755 mmHg 86%
05:00 +17°C° 0 mm 10 mps 755 mmHg 86%
06:00 +17°C° 0 mm 11 mps 755 mmHg 83%
07:00 +17°C° 0 mm 11 mps 755 mmHg 83%
08:00 +17°C° 0 mm 11 mps 756 mmHg 83%
09:00 +18°C° 0 mm 11 mps 756 mmHg 83%
10:00 +18°C° 0 mm 11 mps 756 mmHg 80%
11:00 +18°C° 0 mm 11 mps 756 mmHg 78%
12:00 +19°C° 0 mm 11 mps 756 mmHg 75%
13:00 +19°C° 0 mm 11 mps 756 mmHg 71%
14:00 +19°C° 0 mm 11 mps 756 mmHg 68%
15:00 +19°C° 0 mm 11 mps 756 mmHg 64%
16:00 +18°C° 0 mm 11 mps 756 mmHg 66%
17:00 +17°C° 0 mm 10 mps 756 mmHg 69%
18:00 +16°C° 0 mm 9 mps 756 mmHg 71%
19:00 +15°C° 0 mm 9 mps 757 mmHg 72%
20:00 +13°C° 0 mm 8 mps 757 mmHg 73%
21:00 +14°C° 0 mm 7 mps 757 mmHg 74%
22:00 +14°C° 0 mm 7 mps 758 mmHg 70%
23:00 +14°C° 0 mm 7 mps 758 mmHg 67%

Tomorrow, 6 July, Monday

Time Temperature Precipitation Wind Pressure Humidity
00:00 +14°C° 0 mm 7 mps 758 mmHg 64%
01:00 +12°C° 0 mm 7 mps 758 mmHg 69%
02:00 +11°C° 0 mm 7 mps 758 mmHg 73%
03:00 +11°C° 0 mm 6 mps 758 mmHg 78%
04:00 +11°C° 0 mm 7 mps 758 mmHg 77%
05:00 +12°C° 0 mm 7 mps 758 mmHg 77%
06:00 +12°C° 0 mm 8 mps 758 mmHg 76%
07:00 +14°C° 0 mm 7 mps 758 mmHg 73%
08:00 +15°C° 0 mm 7 mps 759 mmHg 69%
09:00 +15°C° 0 mm 7 mps 759 mmHg 65%
10:00 +16°C° 0 mm 7 mps 760 mmHg 64%
11:00 +16°C° 0 mm 7 mps 760 mmHg 62%
12:00 +16°C° 0 mm 7 mps 760 mmHg 60%
13:00 +17°C° 0 mm 7 mps 760 mmHg 59%
14:00 +17°C° 0 mm 7 mps 761 mmHg 59%
15:00 +18°C° 0 mm 7 mps 761 mmHg 58%
16:00 +17°C° 0.1 mm 6 mps 762 mmHg 63%
17:00 +17°C° 0.1 mm 5 mps 762 mmHg 68%
18:00 +17°C° 0.1 mm 4 mps 762 mmHg 74%
19:00 +16°C° 0 mm 3 mps 763 mmHg 78%
20:00 +13°C° 0 mm 3 mps 763 mmHg 83%
21:00 +13°C° 0 mm 2 mps 764 mmHg 88%
22:00 +12°C° 0 mm 2 mps 764 mmHg 88%
23:00 +12°C° 0 mm 1 mps 764 mmHg 88%

Day after tomorrow, 7 July, Tuesday

Time Temperature Precipitation Wind Pressure Humidity
00:00 +11°C° 0 mm 1 mps 764 mmHg 88%
01:00 +11°C° 0 mm 1 mps 764 mmHg 88%
02:00 +11°C° 0 mm 1 mps 764 mmHg 88%
03:00 +11°C° 0 mm 1 mps 764 mmHg 89%
04:00 +12°C° 0 mm 1 mps 763 mmHg 87%
05:00 +13°C° 0 mm 1 mps 763 mmHg 85%
06:00 +14°C° 0 mm 1 mps 763 mmHg 84%
07:00 +15°C° 0 mm 2 mps 763 mmHg 75%
08:00 +17°C° 0 mm 2 mps 763 mmHg 66%
09:00 +18°C° 0 mm 3 mps 763 mmHg 58%
10:00 +19°C° 0 mm 3 mps 763 mmHg 56%
11:00 +20°C° 0 mm 4 mps 763 mmHg 55%
12:00 +20°C° 0 mm 5 mps 762 mmHg 54%
13:00 +20°C° 0 mm 5 mps 762 mmHg 54%
14:00 +20°C° 0 mm 6 mps 762 mmHg 55%
15:00 +20°C° 0 mm 6 mps 761 mmHg 55%
16:00 +19°C° 0 mm 6 mps 761 mmHg 59%
17:00 +17°C° 0 mm 6 mps 761 mmHg 62%
18:00 +17°C° 0 mm 5 mps 760 mmHg 66%
19:00 +15°C° 0 mm 5 mps 760 mmHg 71%
20:00 +14°C° 0 mm 5 mps 760 mmHg 76%
21:00 +13°C° 0 mm 5 mps 760 mmHg 80%
22:00 +13°C° 0 mm 5 mps 760 mmHg 78%
23:00 +13°C° 0 mm 6 mps 760 mmHg 76%

8 July, Wednesday

Time Temperature Precipitation Wind Pressure Humidity
00:00 +14°C° 0 mm 6 mps 759 mmHg 74%
01:00 +14°C° 0 mm 6 mps 759 mmHg 77%
02:00 +14°C° 0 mm 6 mps 759 mmHg 80%
03:00 +14°C° 0 mm 6 mps 759 mmHg 83%
04:00 +14°C° 0 mm 6 mps 759 mmHg 84%
05:00 +15°C° 0 mm 6 mps 758 mmHg 85%
06:00 +16°C° 0 mm 6 mps 758 mmHg 86%
07:00 +16°C° 0.1 mm 6 mps 759 mmHg 82%
08:00 +17°C° 0.1 mm 6 mps 759 mmHg 77%
09:00 +19°C° 0.1 mm 6 mps 759 mmHg 72%
10:00 +19°C° 0 mm 6 mps 759 mmHg 70%
11:00 +20°C° 0 mm 5 mps 760 mmHg 67%
12:00 +20°C° 0 mm 5 mps 760 mmHg 65%
13:00 +20°C° 0 mm 5 mps 760 mmHg 65%
14:00 +20°C° 0 mm 4 mps 760 mmHg 65%
15:00 +21°C° 0 mm 4 mps 760 mmHg 65%
16:00 +20°C° 0 mm 4 mps 760 mmHg 68%
17:00 +19°C° 0 mm 3 mps 760 mmHg 72%
18:00 +19°C° 0 mm 3 mps 761 mmHg 76%
19:00 +17°C° 0 mm 2 mps 761 mmHg 81%
20:00 +16°C° 0 mm 2 mps 761 mmHg 86%
21:00 +14°C° 0 mm 1 mps 761 mmHg 92%
22:00 +14°C° 0 mm 1 mps 761 mmHg 92%
23:00 +14°C° 0 mm 1 mps 761 mmHg 92%

9 July, Thursday

Time Temperature Precipitation Wind Pressure Humidity
00:00 +13°C° 0 mm 1 mps 761 mmHg 93%
01:00 +13°C° 0 mm 1 mps 761 mmHg 93%
02:00 +13°C° 0 mm 1 mps 761 mmHg 93%
03:00 +13°C° 0 mm 1 mps 761 mmHg 93%
04:00 +14°C° 0 mm 1 mps 761 mmHg 92%
05:00 +15°C° 0 mm 2 mps 761 mmHg 90%
06:00 +16°C° 0 mm 2 mps 761 mmHg 89%
07:00 +17°C° 0 mm 2 mps 761 mmHg 81%
08:00 +19°C° 0 mm 2 mps 761 mmHg 74%
09:00 +21°C° 0 mm 3 mps 761 mmHg 66%
10:00 +22°C° 0 mm 3 mps 761 mmHg 63%
11:00 +24°C° 0 mm 3 mps 761 mmHg 60%
12:00 +25°C° 0 mm 4 mps 760 mmHg 57%
13:00 +25°C° 0 mm 4 mps 760 mmHg 57%
14:00 +25°C° 0 mm 5 mps 759 mmHg 58%
15:00 +25°C° 0 mm 5 mps 759 mmHg 58%
16:00 +23°C° 0 mm 5 mps 758 mmHg 62%
17:00 +22°C° 0 mm 4 mps 758 mmHg 65%
18:00 +21°C° 0 mm 4 mps 758 mmHg 69%
19:00 +19°C° 0 mm 4 mps 758 mmHg 75%
20:00 +18°C° 0 mm 4 mps 757 mmHg 81%
21:00 +16°C° 0 mm 3 mps 757 mmHg 87%
22:00 +15°C° 0 mm 4 mps 757 mmHg 89%
23:00 +14°C° 0 mm 4 mps 757 mmHg 92%

10 July, Friday

Time Temperature Precipitation Wind Pressure Humidity
00:00 +14°C° 0 mm 4 mps 756 mmHg 94%
01:00 +15°C° 0 mm 4 mps 756 mmHg 93%
02:00 +15°C° 0 mm 5 mps 756 mmHg 91%
03:00 +15°C° 0 mm 5 mps 756 mmHg 90%
04:00 +16°C° 0.1 mm 5 mps 756 mmHg 88%
05:00 +16°C° 0.1 mm 5 mps 756 mmHg 86%
06:00 +16°C° 0.1 mm 5 mps 756 mmHg 84%
07:00 +16°C° 0 mm 5 mps 756 mmHg 79%
08:00 +16°C° 0 mm 5 mps 756 mmHg 75%
09:00 +16°C° 0 mm 5 mps 757 mmHg 70%
10:00 +16°C° 0 mm 5 mps 757 mmHg 64%
11:00 +17°C° 0 mm 5 mps 757 mmHg 58%
12:00 +19°C° 0 mm 6 mps 758 mmHg 53%
13:00 +19°C° 0 mm 6 mps 758 mmHg 53%
14:00 +19°C° 0 mm 6 mps 758 mmHg 54%
15:00 +18°C° 0 mm 7 mps 758 mmHg 55%
16:00 +19°C° 0 mm 6 mps 758 mmHg 56%
17:00 +17°C° 0 mm 5 mps 759 mmHg 58%
18:00 +17°C° 0 mm 5 mps 759 mmHg 60%
19:00 +15°C° 0 mm 4 mps 759 mmHg 67%
20:00 +14°C° 0 mm 4 mps 760 mmHg 73%
21:00 +12°C° 0 mm 4 mps 760 mmHg 80%
22:00 +12°C° 0 mm 4 mps 760 mmHg 81%
23:00 +11°C° 0 mm 3 mps 761 mmHg 83%
Show more